�������l�o���
Date,Time,MP-1(��Sv/h),MP-2(��Sv/h),MP-3(��Sv/h),MP-4(��Sv/h),MP-5(��Sv/h),MP-6(��Sv/h),MP-7(��Sv/h),MP-8(��Sv/h),����,����(m/s),���J
2024/02/17,00:00,0.516,0.783,0.488,0.984,0.707,0.312,0.559,0.524,�k��,3.5,��
2024/02/17,00:10,0.514,0.782,0.485,0.982,0.707,0.312,0.559,0.524,�k��,4.1,��
2024/02/17,00:20,0.514,0.784,0.488,0.982,0.706,0.310,0.559,0.523,�k�k��,4.4,��
2024/02/17,00:30,0.515,0.781,0.487,0.984,0.707,0.312,0.559,0.522,�k�k��,3.8,��
2024/02/17,00:40,0.515,0.782,0.488,0.983,0.706,0.312,0.559,0.525,�k�k��,4.0,��
2024/02/17,00:50,0.515,0.784,0.486,0.983,0.707,0.311,0.558,0.522,�k��,4.8,��
2024/02/17,01:00,0.515,0.784,0.488,0.984,0.708,0.310,0.558,0.523,�k�k��,4.8,��
2024/02/17,01:10,0.517,0.783,0.486,0.985,0.706,0.311,0.559,0.524,�k��,5.5,��
2024/02/17,01:20,0.514,0.782,0.486,0.983,0.706,0.311,0.559,0.523,�k��,4.6,��
2024/02/17,01:30,0.514,0.783,0.486,0.983,0.708,0.311,0.558,0.522,�k��,5.0,��
2024/02/17,01:40,0.514,0.782,0.485,0.983,0.706,0.311,0.558,0.522,�k��,5.0,��
2024/02/17,01:50,0.515,0.783,0.487,0.983,0.704,0.311,0.559,0.522,�k��,5.4,��
2024/02/17,02:00,0.516,0.782,0.486,0.983,0.706,0.310,0.557,0.522,�k�k��,5.0,��
2024/02/17,02:10,0.515,0.782,0.487,0.983,0.704,0.312,0.559,0.523,�k��,5.5,��
2024/02/17,02:20,0.515,0.784,0.487,0.982,0.707,0.312,0.558,0.522,�k��,5.3,��
2024/02/17,02:30,0.514,0.781,0.487,0.983,0.706,0.311,0.560,0.523,�k��,5.2,��
2024/02/17,02:40,0.515,0.782,0.486,0.985,0.707,0.310,0.558,0.522,�k��,5.4,��
2024/02/17,02:50,0.515,0.782,0.487,0.982,0.707,0.311,0.559,0.524,�k��,5.7,��
2024/02/17,03:00,0.515,0.781,0.487,0.983,0.708,0.312,0.559,0.523,�k��,5.3,��
2024/02/17,03:10,0.513,0.782,0.487,0.983,0.707,0.313,0.560,0.523,�k��,5.6,��
2024/02/17,03:20,0.515,0.784,0.486,0.983,0.707,0.311,0.559,0.523,�k��,5.4,��
2024/02/17,03:30,0.515,0.782,0.486,0.982,0.706,0.312,0.559,0.523,�k��,6.4,��
2024/02/17,03:40,0.514,0.782,0.486,0.984,0.704,0.312,0.559,0.522,�k��,5.3,��
2024/02/17,03:50,0.515,0.783,0.488,0.983,0.704,0.311,0.558,0.522,�k��,5.5,��
2024/02/17,04:00,0.516,0.783,0.486,0.981,0.705,0.311,0.559,0.524,�k��,5.7,��
2024/02/17,04:10,0.514,0.782,0.488,0.984,0.706,0.312,0.559,0.523,�k��,6.6,��
2024/02/17,04:20,0.514,0.783,0.488,0.986,0.704,0.313,0.559,0.523,�k��,6.0,��
2024/02/17,04:30,0.516,0.782,0.487,0.984,0.705,0.312,0.559,0.523,�k��,6.1,��
2024/02/17,04:40,0.515,0.782,0.487,0.983,0.707,0.310,0.561,0.521,�k��,5.9,��
2024/02/17,04:50,0.514,0.782,0.487,0.983,0.705,0.312,0.560,0.522,�k��,5.3,��
2024/02/17,05:00,0.515,0.782,0.487,0.985,0.706,0.311,0.560,0.522,�k��,5.6,��
2024/02/17,05:10,0.515,0.781,0.486,0.983,0.707,0.311,0.560,0.523,�k��,6.0,��
2024/02/17,05:20,0.514,0.781,0.485,0.983,0.705,0.312,0.559,0.522,�k��,6.4,��
2024/02/17,05:30,0.515,0.781,0.486,0.986,0.706,0.311,0.559,0.522,�k��,6.0,��
2024/02/17,05:40,0.515,0.784,0.487,0.982,0.705,0.312,0.559,0.522,�k��,5.3,��
2024/02/17,05:50,0.515,0.781,0.487,0.984,0.705,0.312,0.558,0.523,�k��,5.4,��
2024/02/17,06:00,0.516,0.780,0.486,0.985,0.705,0.311,0.559,0.522,�k��,5.6,��
2024/02/17,06:10,0.515,0.781,0.485,0.983,0.706,0.311,0.560,0.522,�k��,5.6,��
2024/02/17,06:20,0.515,0.781,0.486,0.984,0.705,0.312,0.560,0.522,�k��,5.6,��
2024/02/17,06:30,0.515,0.783,0.486,0.982,0.705,0.310,0.559,0.522,�k��,5.5,��
2024/02/17,06:40,0.515,0.781,0.485,0.983,0.706,0.311,0.560,0.522,�k��,5.0,��
2024/02/17,06:50,0.514,0.783,0.486,0.984,0.705,0.311,0.560,0.523,�k��,5.6,��
2024/02/17,07:00,0.515,0.782,0.486,0.984,0.706,0.311,0.560,0.522,�k��,6.1,��
2024/02/17,07:10,0.515,0.782,0.487,0.984,0.705,0.312,0.560,0.522,�k��,5.7,��
2024/02/17,07:20,0.515,0.782,0.486,0.984,0.706,0.312,0.560,0.523,�k��,4.7,��
2024/02/17,07:30,0.514,0.783,0.486,0.982,0.705,0.310,0.560,0.521,�k��,5.5,��
2024/02/17,07:40,0.514,0.783,0.487,0.983,0.705,0.312,0.560,0.522,�k��,4.8,��
2024/02/17,07:50,0.516,0.785,0.487,0.982,0.704,0.312,0.560,0.522,�k��,4.5,��
2024/02/17,08:00,0.516,0.783,0.487,0.984,0.704,0.313,0.560,0.525,�k��,5.3,��
2024/02/17,08:10,0.515,0.783,0.487,0.984,0.704,0.312,0.560,0.521,�k��,4.8,��
2024/02/17,08:20,0.514,0.783,0.487,0.984,0.705,0.312,0.561,0.523,�k��,4.9,��
2024/02/17,08:30,0.515,0.783,0.487,0.984,0.707,0.312,0.560,0.523,�k�k��,5.0,��
2024/02/17,08:40,0.514,0.784,0.487,0.984,0.707,0.312,0.560,0.524,�k�k��,4.4,��
2024/02/17,08:50,0.515,0.783,0.487,0.984,0.706,0.313,0.561,0.523,�k�k��,4.6,��
2024/02/17,09:00,0.515,0.786,0.486,0.984,0.706,0.311,0.561,0.523,�k�k��,4.1,��
2024/02/17,09:10,0.516,0.782,0.488,0.984,0.705,0.314,0.561,0.523,�k�k��,3.9,��
2024/02/17,09:20,0.516,0.785,0.486,0.982,0.706,0.313,0.561,0.523,�k�k��,4.7,��
2024/02/17,09:30,0.515,0.784,0.487,0.983,0.705,0.313,0.560,0.523,�k,3.9,��
2024/02/17,09:40,0.515,0.781,0.486,0.983,0.708,0.311,0.559,0.523,�k,3.9,��
2024/02/17,09:50,0.515,0.783,0.487,0.985,0.705,0.313,0.560,0.523,�k�k��,4.8,��
2024/02/17,10:00,0.515,0.784,0.488,0.983,0.706,0.312,0.558,0.522,�k,4.2,��
2024/02/17,10:10,0.516,0.780,0.487,0.983,0.706,0.313,0.559,0.524,�k,4.4,��
2024/02/17,10:20,0.516,0.781,0.488,0.983,0.706,0.313,0.558,0.524,�k,4.4,��
2024/02/17,10:30,0.515,0.784,0.487,0.985,0.705,0.313,0.558,0.523,�k�k��,4.7,��
2024/02/17,10:40,0.516,0.782,0.486,0.983,0.707,0.312,0.558,0.525,�k�k��,5.5,��
2024/02/17,10:50,0.516,0.783,0.488,0.984,0.706,0.312,0.559,0.522,�k,5.3,��
2024/02/17,11:00,0.516,0.780,0.487,0.985,0.706,0.312,0.559,0.523,�k�k��,4.6,��
2024/02/17,11:10,0.516,0.779,0.488,0.985,0.708,0.313,0.558,0.524,�k�k��,5.2,��
2024/02/17,11:20,0.517,0.782,0.487,0.985,0.707,0.313,0.560,0.523,�k,5.8,��
2024/02/17,11:30,0.516,0.783,0.489,0.985,0.706,0.313,0.558,0.523,�k�k��,5.0,��
2024/02/17,11:40,0.515,0.783,0.488,0.986,0.709,0.311,0.559,0.526,�k�k��,5.3,��
2024/02/17,11:50,0.516,0.784,0.487,0.985,0.707,0.311,0.557,0.524,�k�k��,4.8,��
2024/02/17,12:00,0.515,0.783,0.487,0.985,0.706,0.312,0.558,0.524,�k�k��,6.0,��
2024/02/17,12:10,0.515,0.783,0.488,0.986,0.708,0.311,0.559,0.525,�k�k��,6.1,��
2024/02/17,12:20,0.515,0.784,0.487,0.985,0.707,0.312,0.558,0.524,�k�k��,4.9,��
2024/02/17,12:30,0.514,0.780,0.488,0.985,0.706,0.313,0.559,0.524,�k�k��,5.3,��
2024/02/17,12:40,0.517,0.783,0.487,0.984,0.707,0.313,0.559,0.524,�k�k��,5.1,��
2024/02/17,12:50,0.515,0.782,0.489,0.984,0.707,0.312,0.557,0.523,�k�k��,4.7,��
2024/02/17,13:00,0.517,0.782,0.488,0.984,0.706,0.313,0.558,0.526,�k�k��,4.7,��
2024/02/17,13:10,0.515,0.784,0.488,0.985,0.706,0.314,0.558,0.524,�k��,3.8,��
2024/02/17,13:20,0.516,0.783,0.487,0.982,0.707,0.315,0.558,0.525,�k��,3.4,��
2024/02/17,13:30,0.517,0.783,0.488,0.983,0.706,0.313,0.557,0.524,�k��,3.3,��
2024/02/17,13:40,0.516,0.785,0.489,0.983,0.706,0.314,0.559,0.524,�k��,2.8,��
2024/02/17,13:50,0.517,0.784,0.488,0.984,0.707,0.314,0.559,0.522,�k��,3.2,��
2024/02/17,14:00,0.514,0.783,0.488,0.984,0.709,0.313,0.558,0.521,�k�k��,2.3,��
2024/02/17,14:10,0.515,0.784,0.487,0.985,0.708,0.314,0.557,0.523,�k��,2.8,��
2024/02/17,14:20,0.516,0.783,0.488,0.983,0.706,0.313,0.558,0.525,�k�k��,2.3,��
2024/02/17,14:30,0.515,0.785,0.489,0.986,0.708,0.313,0.557,0.522,�k�k��,2.6,��
2024/02/17,14:40,0.516,0.783,0.488,0.985,0.706,0.313,0.559,0.522,�k��,2.6,��
2024/02/17,14:50,0.516,0.782,0.489,0.983,0.709,0.312,0.559,0.522,�k��,2.2,��
2024/02/17,15:00,0.517,0.783,0.489,0.985,0.708,0.314,0.558,0.522,�k��,2.5,��
2024/02/17,15:10,0.516,0.784,0.488,0.984,0.708,0.313,0.558,0.521,�k�k��,2.3,��
2024/02/17,15:20,0.516,0.783,0.487,0.983,0.707,0.312,0.559,0.522,���k��,1.9,��
2024/02/17,15:30,0.516,0.785,0.489,0.985,0.707,0.314,0.560,0.523,�k��,1.7,��
2024/02/17,15:40,0.516,0.782,0.488,0.985,0.708,0.313,0.560,0.523,�k�k��,2.0,��
2024/02/17,15:50,0.516,0.785,0.490,0.986,0.710,0.314,0.561,0.524,�k��,1.8,��
2024/02/17,16:00,0.516,0.784,0.488,0.983,0.708,0.313,0.560,0.524,�k�k��,2.5,��
2024/02/17,16:10,0.516,0.784,0.490,0.983,0.707,0.313,0.559,0.524,�k�k��,2.5,��
2024/02/17,16:20,0.517,0.783,0.487,0.984,0.706,0.314,0.559,0.523,�k�k��,2.0,��
2024/02/17,16:30,0.516,0.785,0.489,0.983,0.707,0.313,0.561,0.524,�k�k��,1.2,��
2024/02/17,16:40,0.515,0.785,0.489,0.986,0.708,0.312,0.560,0.525,�k�k��,1.1,��
2024/02/17,16:50,0.518,0.785,0.490,0.988,0.708,0.312,0.560,0.525,���k��,1.1,��
2024/02/17,17:00,0.516,0.783,0.489,0.984,0.708,0.314,0.560,0.522,-,CALM,��
2024/02/17,17:10,0.515,0.784,0.488,0.983,0.708,0.313,0.559,0.523,��,1.2,��
2024/02/17,17:20,0.518,0.784,0.489,0.985,0.708,0.313,0.559,0.524,��,0.6,��
2024/02/17,17:30,0.515,0.784,0.488,0.985,0.709,0.312,0.559,0.524,��쐼,0.6,��
2024/02/17,17:40,0.515,0.784,0.487,0.983,0.707,0.313,0.560,0.523,��,1.2,��
2024/02/17,17:50,0.514,0.785,0.488,0.984,0.708,0.312,0.560,0.524,�쐼,0.9,��
2024/02/17,18:00,0.516,0.784,0.487,0.983,0.709,0.313,0.561,0.523,�쐼,0.8,��
2024/02/17,18:10,0.515,0.785,0.489,0.986,0.710,0.313,0.560,0.522,���쐼,0.9,��
2024/02/17,18:20,0.515,0.785,0.488,0.983,0.710,0.313,0.558,0.523,���쐼,1.1,��
2024/02/17,18:30,0.515,0.783,0.487,0.985,0.708,0.313,0.558,0.522,-,CALM,��
2024/02/17,18:40,0.516,0.784,0.489,0.984,0.708,0.313,0.558,0.523,-,CALM,��
2024/02/17,18:50,0.515,0.785,0.488,0.984,0.708,0.312,0.560,0.521,��,1.7,��
2024/02/17,19:00,0.516,0.784,0.488,0.984,0.708,0.313,0.559,0.524,���k��,2.0,��
2024/02/17,19:10,0.517,0.783,0.489,0.984,0.708,0.313,0.558,0.523,��,1.5,��
2024/02/17,19:20,0.517,0.783,0.488,0.982,0.708,0.313,0.558,0.523,���쐼,1.1,��
2024/02/17,19:30,0.515,0.782,0.487,0.984,0.709,0.312,0.557,0.522,���k��,1.4,��
2024/02/17,19:40,0.516,0.783,0.487,0.985,0.707,0.313,0.559,0.523,���k��,1.9,��
2024/02/17,19:50,0.518,0.784,0.488,0.983,0.708,0.313,0.559,0.522,���쐼,1.2,��
2024/02/17,20:00,0.514,0.783,0.488,0.984,0.707,0.312,0.559,0.523,���쐼,1.5,��
2024/02/17,20:10,0.515,0.784,0.485,0.984,0.708,0.312,0.558,0.521,��쐼,0.9,��
2024/02/17,20:20,0.515,0.783,0.488,0.984,0.707,0.313,0.558,0.523,�쐼,1.2,��
2024/02/17,20:30,0.516,0.782,0.488,0.984,0.708,0.313,0.558,0.523,��쐼,1.1,��
2024/02/17,20:40,0.516,0.784,0.487,0.983,0.708,0.310,0.559,0.522,��쓌,0.9,��
2024/02/17,20:50,0.515,0.784,0.487,0.983,0.708,0.311,0.559,0.523,-,CALM,��
2024/02/17,21:00,0.515,0.783,0.488,0.984,0.709,0.312,0.558,0.521,-,CALM,��
2024/02/17,21:10,0.514,0.782,0.487,0.984,0.708,0.312,0.558,0.523,��,0.9,��
2024/02/17,21:20,0.516,0.784,0.487,0.981,0.707,0.312,0.558,0.524,-,CALM,��
2024/02/17,21:30,0.514,0.785,0.486,0.984,0.709,0.313,0.558,0.522,-,CALM,��
2024/02/17,21:40,0.515,0.782,0.488,0.983,0.709,0.313,0.558,0.522,��,0.6,��
2024/02/17,21:50,0.514,0.784,0.487,0.981,0.706,0.313,0.559,0.521,���k��,0.6,��
2024/02/17,22:00,0.514,0.784,0.488,0.987,0.708,0.311,0.557,0.523,���k��,0.8,��
2024/02/17,22:10,0.514,0.783,0.487,0.984,0.708,0.312,0.558,0.522,-,CALM,��
2024/02/17,22:20,0.515,0.783,0.487,0.983,0.709,0.312,0.556,0.522,-,CALM,��
2024/02/17,22:30,0.515,0.783,0.488,0.984,0.706,0.313,0.556,0.523,-,CALM,��
2024/02/17,22:40,0.515,0.783,0.486,0.982,0.708,0.312,0.558,0.521,-,CALM,��
2024/02/17,22:50,0.514,0.783,0.487,0.982,0.708,0.312,0.557,0.524,-,CALM,��
2024/02/17,23:00,0.515,0.783,0.489,0.984,0.708,0.312,0.556,0.523,-,CALM,��
2024/02/17,23:10,0.517,0.784,0.488,0.984,0.708,0.312,0.558,0.522,-,CALM,��
2024/02/17,23:20,0.516,0.784,0.487,0.982,0.707,0.312,0.557,0.523,-,CALM,��
2024/02/17,23:30,0.514,0.784,0.488,0.982,0.707,0.312,0.558,0.522,-,CALM,��
2024/02/17,23:40,0.514,0.784,0.488,0.983,0.708,0.312,0.559,0.522,-,CALM,��
2024/02/17,23:50,0.515,0.781,0.487,0.982,0.708,0.312,0.559,0.522,�쐼,0.9,��
